TimeCDT,TemperatureF,Dew PointF,Humidity,Sea Level PressureIn,VisibilityMPH,Wind Direction,Wind SpeedMPH,Gust SpeedMPH,PrecipitationIn,Events,Conditions,WindDirDegrees,DateUTC
12:15 AM,61.9,56.3,82,30.12,10.0,Calm,Calm,-,N/A,,Mostly Cloudy,0,2012-10-04 05:15:00
12:35 AM,62.4,55.4,78,30.13,10.0,Calm,Calm,-,N/A,,Scattered Clouds,0,2012-10-04 05:35:00
12:55 AM,61.0,55.4,82,30.13,10.0,Calm,Calm,-,N/A,,Scattered Clouds,0,2012-10-04 05:55:00
1:15 AM,59.9,55.0,84,30.13,10.0,Calm,Calm,-,N/A,,Mostly Cloudy,0,2012-10-04 06:15:00
1:35 AM,59.2,55.0,86,30.13,10.0,Calm,Calm,-,N/A,,Mostly Cloudy,0,2012-10-04 06:35:00
1:55 AM,57.6,55.6,93,30.13,10.0,Calm,Calm,-,N/A,,Clear,0,2012-10-04 06:55:00
2:15 AM,57.4,56.3,96,30.13,10.0,Calm,Calm,-,N/A,,Clear,0,2012-10-04 07:15:00
2:35 AM,56.7,56.1,98,30.13,10.0,Calm,Calm,-,N/A,,Scattered Clouds,0,2012-10-04 07:35:00
2:55 AM,56.7,56.1,98,30.14,10.0,Calm,Calm,-,N/A,,Scattered Clouds,0,2012-10-04 07:55:00
3:15 AM,55.8,55.4,99,30.14,10.0,Calm,Calm,-,N/A,,Scattered Clouds,0,2012-10-04 08:15:00
3:35 AM,55.8,55.6,99,30.14,7.0,Calm,Calm,-,N/A,,Clear,0,2012-10-04 08:35:00
3:55 AM,55.4,55.4,100,30.15,7.0,Calm,Calm,-,N/A,,Clear,0,2012-10-04 08:55:00
4:15 AM,54.3,54.3,100,30.16,7.0,Calm,Calm,-,N/A,,Clear,0,2012-10-04 09:15:00
4:35 AM,54.3,54.3,100,30.16,7.0,Calm,Calm,-,N/A,,Clear,0,2012-10-04 09:35:00
4:55 AM,54.7,54.7,100,30.17,7.0,Calm,Calm,-,N/A,,Scattered Clouds,0,2012-10-04 09:55:00
5:15 AM,54.3,54.3,100,30.18,5.0,Calm,Calm,-,N/A,,Scattered Clouds,0,2012-10-04 10:15:00
5:35 AM,54.5,54.5,100,30.19,10.0,Calm,Calm,-,N/A,,Clear,0,2012-10-04 10:35:00
5:55 AM,53.8,53.8,100,30.19,10.0,Calm,Calm,-,N/A,,Clear,0,2012-10-04 10:55:00
6:15 AM,53.6,53.6,100,30.19,7.0,Calm,Calm,-,N/A,,Clear,0,2012-10-04 11:15:00
6:35 AM,53.4,53.4,100,30.19,5.0,Calm,Calm,-,N/A,,Clear,0,2012-10-04 11:35:00
6:55 AM,53.2,53.2,100,30.19,2.5,Calm,Calm,-,N/A,,Clear,0,2012-10-04 11:55:00
7:15 AM,53.4,53.4,100,30.19,2.5,Calm,Calm,-,N/A,,Clear,0,2012-10-04 12:15:00
7:35 AM,53.8,53.8,100,30.20,3.0,Calm,Calm,-,N/A,,Clear,0,2012-10-04 12:35:00
7:55 AM,56.7,56.7,100,30.21,5.0,Calm,Calm,-,N/A,,Clear,0,2012-10-04 12:55:00
8:15 AM,60.1,59.5,98,30.21,10.0,Calm,Calm,-,N/A,,Clear,0,2012-10-04 13:15:00
8:35 AM,62.1,58.8,89,30.22,10.0,South,3.5,-,N/A,,Clear,170,2012-10-04 13:35:00
8:55 AM,63.5,59.4,86,30.22,10.0,South,4.6,-,N/A,,Clear,190,2012-10-04 13:55:00
9:15 AM,65.3,59.7,82,30.23,10.0,SSW,3.5,-,N/A,,Clear,200,2012-10-04 14:15:00
9:35 AM,67.1,60.3,79,30.23,10.0,South,3.5,-,N/A,,Clear,180,2012-10-04 14:35:00
9:55 AM,69.1,57.9,68,30.23,10.0,SW,6.9,-,N/A,,Clear,220,2012-10-04 14:55:00
10:15 AM,71.2,58.6,64,30.23,10.0,SSW,5.8,-,N/A,,Clear,200,2012-10-04 15:15:00
10:35 AM,72.0,58.8,63,30.23,10.0,SW,6.9,-,N/A,,Clear,220,2012-10-04 15:35:00
10:55 AM,73.6,59.2,61,30.23,10.0,SSW,6.9,-,N/A,,Clear,210,2012-10-04 15:55:00
11:15 AM,74.8,58.3,56,30.23,10.0,SW,10.4,-,N/A,,Clear,220,2012-10-04 16:15:00
11:35 AM,75.2,58.3,56,30.22,10.0,WSW,6.9,16.1,N/A,,Clear,240,2012-10-04 16:35:00
11:55 AM,76.6,59.0,54,30.22,10.0,SW,6.9,-,N/A,,Clear,230,2012-10-04 16:55:00
12:15 PM,77.4,57.9,51,30.21,10.0,SSW,8.1,-,N/A,,Clear,200,2012-10-04 17:15:00
12:35 PM,77.4,57.2,50,30.21,10.0,SW,9.2,-,N/A,,Clear,230,2012-10-04 17:35:00
12:55 PM,78.1,56.5,47,30.20,10.0,SW,8.1,-,N/A,,Clear,230,2012-10-04 17:55:00
1:15 PM,79.2,57.6,47,30.19,10.0,SSW,6.9,-,N/A,,Clear,210,2012-10-04 18:15:00
1:55 PM,79.7,56.3,44,30.17,10.0,WSW,6.9,-,N/A,,Clear,240,2012-10-04 18:55:00
2:15 PM,79.9,56.3,44,30.16,10.0,SSW,10.4,-,N/A,,Clear,200,2012-10-04 19:15:00
2:35 PM,79.9,55.4,43,30.16,10.0,SSW,8.1,-,N/A,,Clear,200,2012-10-04 19:35:00
2:55 PM,80.6,54.1,40,30.15,10.0,South,5.8,-,N/A,,Clear,180,2012-10-04 19:55:00
3:15 PM,80.6,52.9,38,30.15,10.0,SSW,6.9,-,N/A,,Clear,200,2012-10-04 20:15:00
3:35 PM,81.1,55.2,41,30.14,10.0,South,6.9,-,N/A,,Clear,190,2012-10-04 20:35:00
3:55 PM,81.0,53.4,38,30.14,10.0,SW,6.9,-,N/A,,Clear,230,2012-10-04 20:55:00
4:15 PM,80.6,55.0,41,30.14,10.0,SSW,5.8,-,N/A,,Clear,210,2012-10-04 21:15:00
4:35 PM,80.2,55.2,42,30.14,10.0,South,5.8,-,N/A,,Clear,190,2012-10-04 21:35:00
4:55 PM,79.9,56.1,44,30.14,10.0,South,5.8,-,N/A,,Scattered Clouds,190,2012-10-04 21:55:00
5:35 PM,77.9,56.7,48,30.14,10.0,SW,3.5,-,N/A,,Clear,220,2012-10-04 22:35:00
5:55 PM,76.5,57.2,51,30.14,10.0,South,3.5,-,N/A,,Clear,190,2012-10-04 22:55:00
6:15 PM,74.5,57.2,55,30.14,10.0,Calm,Calm,-,N/A,,Clear,0,2012-10-04 23:15:00
6:35 PM,70.9,58.5,65,30.14,10.0,Calm,Calm,-,N/A,,Clear,0,2012-10-04 23:35:00
6:55 PM,69.1,59.0,70,30.14,10.0,Calm,Calm,-,N/A,,Clear,0,2012-10-04 23:55:00
7:15 PM,67.1,59.2,76,30.14,10.0,Calm,Calm,-,N/A,,Clear,0,2012-10-05 00:15:00
7:35 PM,65.8,59.0,79,30.14,10.0,Calm,Calm,-,N/A,,Clear,0,2012-10-05 00:35:00
8:15 PM,64.4,58.6,82,30.15,10.0,Calm,Calm,-,N/A,,Clear,0,2012-10-05 01:15:00
8:35 PM,63.0,58.6,86,30.15,10.0,Calm,Calm,-,N/A,,Clear,0,2012-10-05 01:35:00
9:15 PM,61.7,59.9,94,30.16,10.0,Calm,Calm,-,N/A,,Clear,0,2012-10-05 02:15:00
9:35 PM,61.7,59.9,94,30.16,10.0,Calm,Calm,-,N/A,,Clear,0,2012-10-05 02:35:00
9:55 PM,60.8,59.4,95,30.16,10.0,Calm,Calm,-,N/A,,Clear,0,2012-10-05 02:55:00
10:15 PM,60.3,59.2,96,30.16,10.0,Calm,Calm,-,N/A,,Clear,0,2012-10-05 03:15:00
10:35 PM,59.4,59.2,99,30.16,10.0,Calm,Calm,-,N/A,,Clear,0,2012-10-05 03:35:00
10:55 PM,59.9,59.5,99,30.16,7.0,Calm,Calm,-,N/A,,Clear,0,2012-10-05 03:55:00
11:15 PM,59.0,58.5,98,30.16,5.0,Calm,Calm,-,N/A,,Clear,0,2012-10-05 04:15:00
11:35 PM,58.8,58.5,99,30.16,5.0,Calm,Calm,-,N/A,,Clear,0,2012-10-05 04:35:00
11:55 PM,58.3,58.3,100,30.15,5.0,Calm,Calm,-,N/A,,Clear,0,2012-10-05 04:55:00